Tracking 23726 objects as of 22-Sep-2021
HD Live streaming from Space Station
objects crossing your sky now

STARLINK 1023

Track STARLINK 1023 now!
10-day predictions
STARLINK 1023 is classified as:


NORAD ID: 44728
Int'l Code: 2019-074R
Perigee: 360.6 km
Apogee: 362.9 km
Inclination: 53.1 °
Period: 91.6 minutes
Semi major axis: 6732 km
RCS: Unknown
Launch date: November 11, 2019
Source: United States (US)
Launch site: AIR FORCE EASTERN TEST RANGE (AFETR)
aabbcc
Your satellite tracking list
Your tracking list is empty




NASA's NSSDC Master Catalog

Two Line Element Set (TLE):
1 44728U 19074R   21265.49092352  .00024699  00000-0  19312-3 0  9995
2 44728  53.0545 284.5891 0001731  37.6430 322.4708 15.71510039103418
Source of the keplerian elements: AFSPC